GSAT0210 (GALILEO 13)

Last updated on Jan. 23, 2020, 4:39 a.m. UTC

1 41550U 16030B   20021.96490044 -.00000022  00000-0  00000-0 0  9991
2 41550  56.4092 285.9997 0002781 306.6910  53.3401  1.70474356 22800
UTC
Height (km)
Latitude
Longitude
Inclination
Orbital Period
UTC large
Height (km)
Speed (km/s)
/
Latitude / Longitude
Inclination (degrees)
Orbital Period (minutes)
Azimuth
Elevation
Range (km)
Doppler Factor
iOS Compass Heading
iOS Angle

Next 30 passes for location: Hong Kong

Rise time Rise Azimuth (degrees) Set time Set Azimuth (degrees) Duration Max altitude (degrees)

No matching passes for this satellites